�N����,����,�g�[���i�䏊�j���x,�g�[�����x,��g�[���i��Q���j���x,����
 2003/09/01, 0:00,29.8,51,28.1,25.8
 2003/09/01, 0:15,29.9,55,28.2,25.3
 2003/09/01, 0:30,30,58,28.3,25.3
 2003/09/01, 0:45,30,60,28.4,25.3
 2003/09/01, 1:00,29.9,61,28.5,25.3
 2003/09/01, 1:15,30,63,28.5,25.4
 2003/09/01, 1:30,30,63,27.9,25.4
 2003/09/01, 1:45,29.6,63,28.1,25.5
 2003/09/01, 2:00,29.4,64,28.2,25.5
 2003/09/01, 2:15,29.4,65,28.3,25.5
 2003/09/01, 2:30,29.8,64,28.3,25.5
 2003/09/01, 2:45,30,63,28.3,25.6
 2003/09/01, 3:00,30,64,28.4,25.6
 2003/09/01, 3:15,29.8,64,28.4,25.6
 2003/09/01, 3:30,29.8,64,28.4,25.5
 2003/09/01, 3:45,29.8,64,28.4,25.7
 2003/09/01, 4:00,29.8,65,28.3,25.8
 2003/09/01, 4:15,29.7,65,28.3,25.7
 2003/09/01, 4:30,29.8,65,28.4,25.7
 2003/09/01, 4:45,29.8,65,28.4,25.8
 2003/09/01, 5:00,29.7,65,28.3,25.9
 2003/09/01, 5:15,29.7,65,28.3,25.9
 2003/09/01, 5:30,29.7,65,28.3,26
 2003/09/01, 5:45,29.5,66,28.3,26
 2003/09/01, 6:00,29.3,67,28.3,26
 2003/09/01, 6:15,29.5,66,28.3,26
 2003/09/01, 6:30,29.7,67,28.3,25
 2003/09/01, 6:45,29.6,70,28.2,25
 2003/09/01, 7:00,29.7,72,28.2,25
 2003/09/01, 7:15,30.1,71,28.2,25
 2003/09/01, 7:30,30.3,72,28.3,25.1
 2003/09/01, 7:45,30.2,72,28.4,25.2
 2003/09/01, 8:00,30.3,72,28.5,25.3
 2003/09/01, 8:15,30.7,70,28.6,25.1
 2003/09/01, 8:30,30.8,68,28.7,25.1
 2003/09/01, 8:45,30.7,67,28.7,25.1
 2003/09/01, 9:00,30.8,67,28.8,25.1
 2003/09/01, 9:15,30.8,67,29,25.2
 2003/09/01, 9:30,30.7,67,29.1,25.2
 2003/09/01, 9:45,30.7,70,29.2,25.2
 2003/09/01,10:00,31.9,64,29.4,25.3
 2003/09/01,10:15,32.1,62,29.6,25.3
 2003/09/01,10:30,31.7,63,29.8,25.4
 2003/09/01,10:45,31.5,64,30,25.4
 2003/09/01,11:00,31.7,64,30.2,25.5
 2003/09/01,11:15,31.4,65,30.4,25.5
 2003/09/01,11:30,31.2,65,30.5,25.6
 2003/09/01,11:45,31.3,65,30.7,25.6
 2003/09/01,12:00,31.7,64,31,25.6
 2003/09/01,12:15,32.2,65,31.2,25.7
 2003/09/01,12:30,32.2,59,31.3,25.8
 2003/09/01,12:45,31.7,56,31.5,25.3
 2003/09/01,13:00,31.6,53,31.8,25.3
 2003/09/01,13:15,31.6,51,31.8,25.3
 2003/09/01,13:30,31.7,50,32,24.9
 2003/09/01,13:45,32.1,55,32.1,24.9
 2003/09/01,14:00,32.4,56,32.1,24.9
 2003/09/01,14:15,32.7,57,32.3,25
 2003/09/01,14:30,32.9,57,32.4,25
 2003/09/01,14:45,33.1,58,32.6,25.1
 2003/09/01,15:00,33,58,32.2,25.2
 2003/09/01,15:15,32.9,59,32.2,25.2
 2003/09/01,15:30,32.5,60,31.8,25.3
 2003/09/01,15:45,32.6,60,31.6,25.4
 2003/09/01,16:00,33,58,32.1,25.4
 2003/09/01,16:15,33.3,58,32.4,25.5
 2003/09/01,16:30,33.2,58,32.3,25.6
 2003/09/01,16:45,33.4,59,32.4,25.6
 2003/09/01,17:00,32.3,54,32.1,25.7
 2003/09/01,17:15,32,53,31.8,25.8
 2003/09/01,17:30,32.1,56,31.1,25.8
 2003/09/01,17:45,32.2,56,31,25.9
 2003/09/01,18:00,32.3,54,30.9,26
 2003/09/01,18:15,32.1,52,30.9,25.5
 2003/09/01,18:30,31.8,50,31.1,25.6
 2003/09/01,18:45,31.9,52,31.1,25.5
 2003/09/01,19:00,31.2,46,31.1,25.5
 2003/09/01,19:15,30.7,45,31,25.7
 2003/09/01,19:30,30.4,44,31,25.8
 2003/09/01,19:45,30,42,31,25.8
 2003/09/01,20:00,29.6,44,30.9,25.9
 2003/09/01,20:15,29.6,45,30.7,26
 2003/09/01,20:30,29.3,46,30.7,26
 2003/09/01,20:45,28.8,44,30.6,26.1
 2003/09/01,21:00,28.5,45,30.5,26.1
 2003/09/01,21:15,29.5,46,30.4,25.7
 2003/09/01,21:30,30.4,46,30.3,25.7
 2003/09/01,21:45,30.7,49,30.2,25.8
 2003/09/01,22:00,30.7,53,30.2,25.8
 2003/09/01,22:15,30.6,54,30.1,25.8
 2003/09/01,22:30,30.8,55,27.2,25.8
 2003/09/01,22:45,30.9,56,26.2,25.7
 2003/09/01,23:00,30.2,53,24.2,25.5
 2003/09/01,23:15,29.8,49,27.3,25.4
 2003/09/01,23:30,29.3,48,27.7,25.4
 2003/09/01,23:45,29.4,54,27.9,25.5
 2003/09/02, 0:00,29.6,56,28,25.5
 2003/09/02, 0:15,29.8,58,28,25.5
 2003/09/02, 0:30,29.8,59,28,25.6
 2003/09/02, 0:45,29.8,60,28,25.6
 2003/09/02, 1:00,29.8,61,28,25.7
 2003/09/02, 1:15,29.6,63,28.3,25.7
 2003/09/02, 1:30,29.6,63,28.4,25.8
 2003/09/02, 1:45,29.4,64,28.4,25.8
 2003/09/02, 2:00,29.6,63,28.5,25.7
 2003/09/02, 2:15,29.7,63,28.5,25.7
 2003/09/02, 2:30,29.7,64,28.5,25.8
 2003/09/02, 2:45,29.7,64,28.6,25.9
 2003/09/02, 3:00,29.5,65,28.6,25.9
 2003/09/02, 3:15,29.3,65,28.6,25.9
 2003/09/02, 3:30,29.2,66,28.6,26
 2003/09/02, 3:45,29.3,65,28.6,26
 2003/09/02, 4:00,29.5,65,28.6,26
 2003/09/02, 4:15,29.5,65,28.6,26.1
 2003/09/02, 4:30,29.5,65,28.6,26
 2003/09/02, 4:45,29.3,66,28.6,26.1
 2003/09/02, 5:00,29.2,66,28.5,26.1
 2003/09/02, 5:15,29,67,28.5,26.1
 2003/09/02, 5:30,29.1,66,28.5,26.2
 2003/09/02, 5:45,29.2,65,28.5,26.2
 2003/09/02, 6:00,29.2,65,28.5,26.3
 2003/09/02, 6:15,29.2,66,28.5,26.3
 2003/09/02, 6:30,29.2,65,28.5,26.3
 2003/09/02, 6:45,29.1,66,28.5,25.3
 2003/09/02, 7:00,29,74,28.3,25.5
 2003/09/02, 7:15,29.8,70,28.3,25.5
 2003/09/02, 7:30,30,69,28.3,25.3
 2003/09/02, 7:45,29.7,71,28.4,25.3
 2003/09/02, 8:00,29.4,73,28.5,25.5
 2003/09/02, 8:15,29.7,72,28.5,25.6
 2003/09/02, 8:30,29.8,72,28.6,25.6
 2003/09/02, 8:45,29.9,72,28.7,25.2
 2003/09/02, 9:00,29.5,74,28.8,25.2
 2003/09/02, 9:15,29.6,74,28.7,25.2
 2003/09/02, 9:30,30,72,28.9,25.3
 2003/09/02, 9:45,30.2,72,28.9,25.3
 2003/09/02,10:00,30.3,71,29.1,25.3
 2003/09/02,10:15,30.3,71,29.2,25.4
 2003/09/02,10:30,30.9,70,29.5,25.4
 2003/09/02,10:45,31.1,67,29.7,25.2
 2003/09/02,11:00,31.2,65,29.8,25.1
 2003/09/02,11:15,31.3,65,29.9,25.1
 2003/09/02,11:30,31,61,30.1,25.2
 2003/09/02,11:45,30.9,58,30.6,25.1
 2003/09/02,12:00,30.6,57,30.9,25
 2003/09/02,12:15,30.2,57,30.7,25.1
 2003/09/02,12:30,30.2,57,30.9,25
 2003/09/02,12:45,30.6,57,31.1,25.2
 2003/09/02,13:00,31,55,31.5,25.3
 2003/09/02,13:15,31,53,31.8,25.3
 2003/09/02,13:30,31,53,31.9,25.3
 2003/09/02,13:45,31,54,32.2,25.4
 2003/09/02,14:00,31,54,32.8,25.6
 2003/09/02,14:15,32.1,56,33.1,25.6
 2003/09/02,14:30,32.4,56,33.4,25.7
 2003/09/02,14:45,32.5,56,33.7,25.7
 2003/09/02,15:00,32.7,56,33.1,25.2
 2003/09/02,15:15,32.8,57,33.5,25.3
 2003/09/02,15:30,32.4,52,33.5,25.3
 2003/09/02,15:45,32.2,50,33.6,25.4
 2003/09/02,16:00,32.1,49,33.5,25.4
 2003/09/02,16:15,32.3,52,33.3,25.5
 2003/09/02,16:30,32.2,48,33.5,25.5
 2003/09/02,16:45,32,48,33.3,25.6
 2003/09/02,17:00,32.1,50,33.4,25.7
 2003/09/02,17:15,32.1,51,33.2,25.7
 2003/09/02,17:30,32,48,33,25.7
 2003/09/02,17:45,32.3,46,32.8,25.8
 2003/09/02,18:00,31.6,46,32.7,25.4
 2003/09/02,18:15,31.8,49,32.3,25.5
 2003/09/02,18:30,31,49,32.1,25.5
 2003/09/02,18:45,30.9,49,31.8,25.6
 2003/09/02,19:00,30.5,49,31.5,25.6
 2003/09/02,19:15,30.2,51,31.2,25.7
 2003/09/02,19:30,30.1,51,31.1,25.7
 2003/09/02,19:45,30.3,51,31.2,25.7
 2003/09/02,20:00,29.9,49,31,25.8
 2003/09/02,20:15,30.3,63,30.4,25.8
 2003/09/02,20:30,31.1,63,30.1,25.8
 2003/09/02,20:45,31.1,63,30.3,25.9
 2003/09/02,21:00,30.9,62,30.2,25.9
 2003/09/02,21:15,30.6,58,29.8,25.9
 2003/09/02,21:30,30.2,54,29.7,26
 2003/09/02,21:45,29.8,52,29.9,25.8
 2003/09/02,22:00,29.4,51,30,25.8
 2003/09/02,22:15,29.6,47,30,26.1
 2003/09/02,22:30,30.4,50,30,25.8
 2003/09/02,22:45,30.5,54,29.8,25.9
 2003/09/02,23:00,30.7,58,29.7,25.9
 2003/09/02,23:15,30.1,51,29.7,25.9
 2003/09/02,23:30,29.7,48,29.6,25.9
 2003/09/02,23:45,30.3,52,29.6,26
 2003/09/03, 0:00,30.4,54,29.6,26
 2003/09/03, 0:15,30.3,56,29.7,26.1
 2003/09/03, 0:30,30.3,57,29.7,26.1
 2003/09/03, 0:45,30.5,58,29.6,26.1
 2003/09/03, 1:00,30.4,58,29.6,26.1
 2003/09/03, 1:15,30.3,59,29.6,26.2
 2003/09/03, 1:30,30.4,59,29.5,26.2
 2003/09/03, 1:45,30.4,60,29.5,26.2
 2003/09/03, 2:00,30.3,61,29.5,26.3
 2003/09/03, 2:15,30.3,61,29.4,26.3
 2003/09/03, 2:30,30.5,61,29.4,26.3
 2003/09/03, 2:45,30.2,62,29.4,26.4
 2003/09/03, 3:00,30,62,29.3,26.4
 2003/09/03, 3:15,30,62,29.2,26.4
 2003/09/03, 3:30,30.3,61,29.2,26.4
 2003/09/03, 3:45,30.6,61,29.1,26.5
 2003/09/03, 4:00,30.5,61,29.1,26.5
 2003/09/03, 4:15,30.1,62,29.1,26.5
 2003/09/03, 4:30,30,62,29.1,26.5
 2003/09/03, 4:45,30.1,62,29,26.6
 2003/09/03, 5:00,30.1,62,29,26.6
 2003/09/03, 5:15,30.1,63,28.9,26.6
 2003/09/03, 5:30,30,63,28.9,26.6
 2003/09/03, 5:45,30.1,62,28.9,26.6
 2003/09/03, 6:00,30,63,28.8,26.7
 2003/09/03, 6:15,29.9,63,28.8,26.7
 2003/09/03, 6:30,30.1,65,28.8,26.7
 2003/09/03, 6:45,29.8,67,28.6,25.9
 2003/09/03, 7:00,29.6,68,28.5,25.8
 2003/09/03, 7:15,30.2,67,28.5,25.6
 2003/09/03, 7:30,30.1,68,28.5,25.7
 2003/09/03, 7:45,29.9,69,28.6,26
 2003/09/03, 8:00,30.2,70,28.6,25.8
 2003/09/03, 8:15,30.4,71,28.7,25.8
 2003/09/03, 8:30,30.3,71,28.8,25.8
 2003/09/03, 8:45,30.8,69,28.9,25.8
 2003/09/03, 9:00,30.8,69,29,25.8
 2003/09/03, 9:15,30.5,70,29.1,25.8
 2003/09/03, 9:30,30.5,66,29.2,25.9
 2003/09/03, 9:45,31,66,29.4,25.9
 2003/09/03,10:00,31.1,65,29.7,25.9
 2003/09/03,10:15,30.9,65,29.7,26
 2003/09/03,10:30,31.2,65,30,26
 2003/09/03,10:45,31.5,62,30.4,25.4
 2003/09/03,11:00,31.5,62,30.5,25.6
 2003/09/03,11:15,31.9,63,30.5,25.7
 2003/09/03,11:30,31.6,63,30.7,25.7
 2003/09/03,11:45,31.5,65,31,25.7
 2003/09/03,12:00,31.5,64,31.2,25.8
 2003/09/03,12:15,32,63,31.3,25.8
 2003/09/03,12:30,32.4,62,31.4,25.9
 2003/09/03,12:45,32.5,62,31.6,25.9
 2003/09/03,13:00,32.5,62,31.9,26
 2003/09/03,13:15,32.6,62,32.1,26
 2003/09/03,13:30,32.7,62,32.4,26.1
 2003/09/03,13:45,33,61,32.5,26.1
 2003/09/03,14:00,33.1,61,32.7,26.2
 2003/09/03,14:15,33,62,32.8,26.2
 2003/09/03,14:30,33.1,61,32.8,26.3
 2003/09/03,14:45,33.4,58,33,25.5
 2003/09/03,15:00,33.1,54,33.1,25.5
 2003/09/03,15:15,32.5,53,33.3,25.6
 2003/09/03,15:30,32.3,54,32.8,25.7
 2003/09/03,15:45,32.5,49,33.5,25.4
 2003/09/03,16:00,32.1,47,32.8,25.5
 2003/09/03,16:15,32.5,53,32.4,26.1
 2003/09/03,16:30,32.5,54,32.5,26.1
 2003/09/03,16:45,31.8,48,32.7,26.2
 2003/09/03,17:00,31.1,46,32.6,26.2
 2003/09/03,17:15,31,44,32.6,26.3
 2003/09/03,17:30,30.8,43,32.5,26.3
 2003/09/03,17:45,30.7,42,32.5,25.7
 2003/09/03,18:00,30.4,45,32.5,25.7
 2003/09/03,18:15,31.6,42,32.4,26.2
 2003/09/03,18:30,31.1,40,32.3,26.2
 2003/09/03,18:45,30.3,41,32.3,26.3
 2003/09/03,19:00,29.9,40,32.1,26
 2003/09/03,19:15,29.7,42,32.1,26
 2003/09/03,19:30,29.9,52,32.1,26.1
 2003/09/03,19:45,29.9,53,32,26.1
 2003/09/03,20:00,30.1,54,31.9,26.1
 2003/09/03,20:15,30.3,54,31.8,25.9
 2003/09/03,20:30,30.1,54,31.7,26
 2003/09/03,20:45,29.7,54,31.6,26
 2003/09/03,21:00,29.7,55,31.6,26
 2003/09/03,21:15,30,54,31.5,26
 2003/09/03,21:30,30.4,51,31.3,26
 2003/09/03,21:45,30.3,50,31.2,26.1
 2003/09/03,22:00,30.2,50,31,26.1
 2003/09/03,22:15,30,50,30.9,25.7
 2003/09/03,22:30,30.1,51,28.4,25.8
 2003/09/03,22:45,30.2,50,25.6,25.8
 2003/09/03,23:00,30,49,26.3,25.8
 2003/09/03,23:15,29.9,49,27.8,25.8
 2003/09/03,23:30,30,51,28.3,26.1
 2003/09/03,23:45,29.5,47,28.5,26.2
 2003/09/04, 0:00,29.6,50,28.5,26.2
 2003/09/04, 0:15,29.7,52,28.6,26.3
 2003/09/04, 0:30,29.9,54,28.7,26.3
 2003/09/04, 0:45,30,56,28.7,25.8
 2003/09/04, 1:00,29.8,61,28.7,25.9
 2003/09/04, 1:15,30.1,62,28.8,25.9
 2003/09/04, 1:30,29.8,64,28.8,26
 2003/09/04, 1:45,29.7,64,28.8,26
 2003/09/04, 2:00,29.5,64,28.8,26
 2003/09/04, 2:15,29.5,65,28.8,26
 2003/09/04, 2:30,29.6,64,28.8,26
 2003/09/04, 2:45,29.7,64,28.7,26.1
 2003/09/04, 3:00,29.5,65,28.8,26.1
 2003/09/04, 3:15,29.6,65,28.7,26.1
 2003/09/04, 3:30,29.5,66,28.7,26.1
 2003/09/04, 3:45,29.4,67,28.7,26.2
 2003/09/04, 4:00,29.3,67,28.6,26.2
 2003/09/04, 4:15,29.3,67,28.7,26.2
 2003/09/04, 4:30,29.4,67,28.6,26.2
 2003/09/04, 4:45,29.4,67,28.6,26.3
 2003/09/04, 5:00,29.3,67,28.6,26.3
 2003/09/04, 5:15,29.3,67,28.5,26.3
 2003/09/04, 5:30,29.2,68,28.5,26.3
 2003/09/04, 5:45,29.2,67,28.4,26.4
 2003/09/04, 6:00,29.1,68,28.4,26.4
 2003/09/04, 6:15,29.1,67,28.3,25.6
 2003/09/04, 6:30,30.1,66,28.2,25.7
 2003/09/04, 6:45,29.2,69,28.2,25.6
 2003/09/04, 7:00,29.3,70,28.2,25.9
 2003/09/04, 7:15,30.2,66,28.2,26
 2003/09/04, 7:30,29.8,68,28.1,25.8
 2003/09/04, 7:45,29.7,69,28.2,26.2
 2003/09/04, 8:00,29.8,67,28.2,26.2
 2003/09/04, 8:15,30,67,28.3,25.8
 2003/09/04, 8:30,30.4,65,28.4,25.8
 2003/09/04, 8:45,30.3,65,28.5,25.8
 2003/09/04, 9:00,30.2,65,28.6,25.8
 2003/09/04, 9:15,30.4,64,28.7,25.8
 2003/09/04, 9:30,30.5,64,28.8,25.8
 2003/09/04, 9:45,30.5,64,29,25.8
 2003/09/04,10:00,30.5,64,29.1,25.8
 2003/09/04,10:15,30.7,63,29.2,25.9
 2003/09/04,10:30,30.8,63,29.4,25.9
 2003/09/04,10:45,30.7,63,29.5,26
 2003/09/04,11:00,30.9,63,29.7,26
 2003/09/04,11:15,31,62,29.9,26
 2003/09/04,11:30,31,62,30,26.1
 2003/09/04,11:45,30.7,63,30.2,26.1
 2003/09/04,12:00,30.9,63,30.4,26.1
 2003/09/04,12:15,31.2,62,30.7,26.2
 2003/09/04,12:30,31.3,62,31,26.2
 2003/09/04,12:45,31.4,62,31.3,26.2
 2003/09/04,13:00,31.6,61,31.6,26.3
 2003/09/04,13:15,31.9,61,32,26.3
 2003/09/04,13:30,31.9,61,32.2,26.3
 2003/09/04,13:45,31.6,62,32.2,26.4
 2003/09/04,14:00,31.8,61,32.4,26.3
 2003/09/04,14:15,32.1,60,32.7,26.3
 2003/09/04,14:30,32.2,60,32.8,26.4
 2003/09/04,14:45,32.1,61,33.1,26.5
 2003/09/04,15:00,32.1,61,33.5,26.6
 2003/09/04,15:15,32.5,60,33.7,26.7
 2003/09/04,15:30,33.3,59,34,26.6
 2003/09/04,15:45,33.7,58,34.4,26.6
 2003/09/04,16:00,33.8,58,34.7,26.7
 2003/09/04,16:15,33.9,58,35,26.8
 2003/09/04,16:30,34,58,35.1,26.8
 2003/09/04,16:45,34.1,58,35.4,26.9
 2003/09/04,17:00,33.5,53,35.4,27
 2003/09/04,17:15,33,49,35.4,25.6
 2003/09/04,17:30,32.5,47,34.8,25.9
 2003/09/04,17:45,32.3,44,34,26
 2003/09/04,18:00,31.9,43,33.5,26
 2003/09/04,18:15,31.2,43,33.1,25.9
 2003/09/04,18:30,31.5,49,32.8,25.8
 2003/09/04,18:45,31.9,42,32.6,25.9
 2003/09/04,19:00,31.7,44,32,25.9
 2003/09/04,19:15,31.1,43,31.2,25.6
 2003/09/04,19:30,30.9,42,31,25.7
 2003/09/04,19:45,30.6,41,31.1,25.7
 2003/09/04,20:00,30.1,40,31,25.8
 2003/09/04,20:15,29.7,39,30.9,25.8
 2003/09/04,20:30,30,48,30.7,25.8
 2003/09/04,20:45,30.2,51,30.5,25.8
 2003/09/04,21:00,30.3,51,30.3,25.9
 2003/09/04,21:15,30.8,53,30.1,26
 2003/09/04,21:30,30.6,54,29.9,26
 2003/09/04,21:45,30.6,55,29.8,26.1
 2003/09/04,22:00,30.8,58,29.1,26.1
 2003/09/04,22:15,30.9,57,25.2,26.1
 2003/09/04,22:30,30.3,54,27.3,26.1
 2003/09/04,22:45,29.6,50,28,26.1
 2003/09/04,23:00,29,48,28.2,26.2
 2003/09/04,23:15,29.6,49,28.1,26.2
 2003/09/04,23:30,30,50,28,26.2
 2003/09/04,23:45,30.5,52,28.2,26.3
 2003/09/05, 0:00,30.5,54,28.2,26.3
 2003/09/05, 0:15,30.3,56,28.2,25.7
 2003/09/05, 0:30,30.1,58,28.2,25.7
 2003/09/05, 0:45,29.9,60,28.2,25.7
 2003/09/05, 1:00,30,59,28.3,25.7
 2003/09/05, 1:15,30.1,60,28.3,25.8
 2003/09/05, 1:30,29.9,61,28.3,25.8
 2003/09/05, 1:45,29.7,61,28.3,25.8
 2003/09/05, 2:00,29.7,61,28.2,25.9
 2003/09/05, 2:15,29.7,60,28.2,25.9
 2003/09/05, 2:30,29.7,60,28.1,25.9
 2003/09/05, 2:45,29.6,60,28.1,25.9
 2003/09/05, 3:00,29.4,61,28.1,25.9
 2003/09/05, 3:15,29.4,61,28,25.9
 2003/09/05, 3:30,29.4,60,28,26
 2003/09/05, 3:45,29.4,61,27.9,26
 2003/09/05, 4:00,29.4,61,27.8,26
 2003/09/05, 4:15,29.1,61,27.8,26
 2003/09/05, 4:30,29.1,61,27.7,26
 2003/09/05, 4:45,29,61,27.7,26
 2003/09/05, 5:00,29,61,27.7,26
 2003/09/05, 5:15,29.3,60,27.6,26
 2003/09/05, 5:30,28.9,61,27.6,26.1
 2003/09/05, 5:45,29.2,60,27.5,26.1
 2003/09/05, 6:00,28.9,61,27.5,26.1
 2003/09/05, 6:15,28.8,61,27.5,26
 2003/09/05, 6:30,28.8,61,27.4,25.2
 2003/09/05, 6:45,29,59,27.2,25.5
 2003/09/05, 7:00,29,58,27.1,25.5
 2003/09/05, 7:15,29,58,27.1,25.4
 2003/09/05, 7:30,28.6,59,27.1,25.7
 2003/09/05, 7:45,28.4,61,27.1,26
 2003/09/05, 8:00,28.7,60,27.1,26.1
 2003/09/05, 8:15,28.7,60,27.1,26.1
 2003/09/05, 8:30,28.6,62,27.2,26.1
 2003/09/05, 8:45,28.7,61,27.2,26.1
 2003/09/05, 9:00,28.7,62,27.2,25.1
 2003/09/05, 9:15,29,62,27.4,25.1
 2003/09/05, 9:30,29.5,61,27.5,25.1
 2003/09/05, 9:45,29.7,60,27.6,25.3
 2003/09/05,10:00,29.6,61,27.9,25.4
 2003/09/05,10:15,29.5,61,27.8,25.5
 2003/09/05,10:30,29.6,61,28.1,25.5
 2003/09/05,10:45,30,60,28.3,25.5
 2003/09/05,11:00,30.1,60,28.4,25.6
 2003/09/05,11:15,30,61,28.4,25.6
 2003/09/05,11:30,30,62,28.9,25.6
 2003/09/05,11:45,30.1,62,29,25.6
 2003/09/05,12:00,30.4,61,29.5,25.7
 2003/09/05,12:15,30.7,61,29.7,25.7
 2003/09/05,12:30,30.6,61,29.7,25.7
 2003/09/05,12:45,30.5,62,30.3,24.9
 2003/09/05,13:00,29.9,56,30.4,24.9
 2003/09/05,13:15,30,51,30.5,25
 2003/09/05,13:30,30.5,48,31,25
 2003/09/05,13:45,30.5,46,31.3,25
 2003/09/05,14:00,30.4,46,31.4,25.1
 2003/09/05,14:15,30.8,48,31.5,24.8
 2003/09/05,14:30,31.3,51,31.7,24.8
 2003/09/05,14:45,31.9,52,32.1,24.9
 2003/09/05,15:00,32.3,53,32.4,24.9
 2003/09/05,15:15,32.5,54,32.7,24.9
 2003/09/05,15:30,32.6,54,33,25
 2003/09/05,15:45,32.8,55,33.2,25
 2003/09/05,16:00,33.1,54,33.5,24.9
 2003/09/05,16:15,33,58,33.6,25.9
 2003/09/05,16:30,32.3,53,33.9,26
 2003/09/05,16:45,32.1,47,33.9,26
 2003/09/05,17:00,31.7,44,33.3,26
 2003/09/05,17:15,31.3,44,32,26.1
 2003/09/05,17:30,31.4,42,31.3,26.1
 2003/09/05,17:45,30.9,42,31.1,26.1
 2003/09/05,18:00,30.4,42,30.4,26.2
 2003/09/05,18:15,30.6,42,29.8,25.6
 2003/09/05,18:30,31.3,42,29.8,25.9
 2003/09/05,18:45,30.2,42,29.5,25.9
 2003/09/05,19:00,29.9,41,29.6,25.9
 2003/09/05,19:15,29.4,40,29.7,25.9
 2003/09/05,19:30,29.7,44,29.8,26
 2003/09/05,19:45,30,49,29.7,26
 2003/09/05,20:00,30.3,53,29.7,26
 2003/09/05,20:15,30.6,55,29.3,26.1
 2003/09/05,20:30,31,56,28.9,26.1
 2003/09/05,20:45,31,57,28.8,26.5
 2003/09/05,21:00,30.9,58,29,26.4
 2003/09/05,21:15,30.7,59,28.9,26.4
 2003/09/05,21:30,30.8,60,28.8,26
 2003/09/05,21:45,31,60,28.7,25.9
 2003/09/05,22:00,30.9,62,28.6,25.9
 2003/09/05,22:15,30.7,62,28.7,25.9
 2003/09/05,22:30,30.7,62,28.8,25.9
 2003/09/05,22:45,31.1,61,25.2,25.9
 2003/09/05,23:00,30.8,59,27.3,25.9
 2003/09/05,23:15,30.5,62,26.3,26
 2003/09/05,23:30,30.5,61,27.3,26
 2003/09/05,23:45,30.6,58,27.3,26
 2003/09/06, 0:00,30.3,57,27.3,26.1
 2003/09/06, 0:15,30.3,56,27.2,26.1
 2003/09/06, 0:30,30.5,55,27.2,26.1
 2003/09/06, 0:45,30.5,57,27.6,26.2
 2003/09/06, 1:00,30.4,58,27.8,26.2
 2003/09/06, 1:15,30.5,59,28,26.2
 2003/09/06, 1:30,30.4,59,28.1,26.2
 2003/09/06, 1:45,30.3,60,28.1,26.4
 2003/09/06, 2:00,30.3,60,28.2,26.3
 2003/09/06, 2:15,30.3,60,28.4,26.3
 2003/09/06, 2:30,30.2,61,28.4,26.4
 2003/09/06, 2:45,30.2,61,28.4,26.4
 2003/09/06, 3:00,30.2,61,28.5,26.4
 2003/09/06, 3:15,30,62,28.5,26.5
 2003/09/06, 3:30,30,62,28.5,26.5
 2003/09/06, 3:45,30.1,62,28.5,26.5
 2003/09/06, 4:00,29.8,63,28.5,26.5
 2003/09/06, 4:15,29.5,64,28.4,26.5
 2003/09/06, 4:30,29.3,64,28.4,26.6
 2003/09/06, 4:45,29.7,64,28.4,26.6
 2003/09/06, 5:00,30.1,62,28.4,26.7
 2003/09/06, 5:15,30.1,62,28.4,26.7
 2003/09/06, 5:30,29.9,63,28.3,26.7
 2003/09/06, 5:45,29.7,64,28.3,26.7
 2003/09/06, 6:00,29.8,63,28.2,26.7
 2003/09/06, 6:15,29.9,63,28.3,26.7
 2003/09/06, 6:30,29.8,63,28.3,26.7
 2003/09/06, 6:45,29.7,64,28.2,26.8
 2003/09/06, 7:00,29.8,63,28.2,26.8
 2003/09/06, 7:15,29.7,64,28.3,26.8
 2003/09/06, 7:30,29.8,64,28.2,26.8
 2003/09/06, 7:45,29.8,67,28.2,25.5
 2003/09/06, 8:00,29.5,67,28,26
 2003/09/06, 8:15,29.5,70,27.8,26
 2003/09/06, 8:30,29.6,72,27.7,26
 2003/09/06, 8:45,29.7,71,27.8,26
 2003/09/06, 9:00,29.6,72,27.8,25.3
 2003/09/06, 9:15,29.8,71,27.8,25.3
 2003/09/06, 9:30,29.5,70,27.9,25.3
 2003/09/06, 9:45,29.3,71,27.9,25.3
 2003/09/06,10:00,29.1,72,28.1,25.4
 2003/09/06,10:15,29.5,68,28.3,25.5
 2003/09/06,10:30,29.7,68,28.4,25.2
 2003/09/06,10:45,30.1,67,28.5,25.2
 2003/09/06,11:00,29.8,66,28.6,25.4
 2003/09/06,11:15,29.7,66,28.7,25.4
 2003/09/06,11:30,30.1,66,28.8,25.5
 2003/09/06,11:45,30.2,63,29.3,25.5
 2003/09/06,12:00,30.3,63,29.4,25.5
 2003/09/06,12:15,30.8,63,29.7,25.6
 2003/09/06,12:30,31,61,29.6,25.4
 2003/09/06,12:45,31,62,29.9,25.5
 2003/09/06,13:00,30.6,63,29.8,25.3
 2003/09/06,13:15,30.7,64,29.9,25.3
 2003/09/06,13:30,31.5,62,29.9,25.4
 2003/09/06,13:45,31.9,60,30,25.4
 2003/09/06,14:00,31.8,60,29.9,25.5
 2003/09/06,14:15,31.5,61,30,25.5
 2003/09/06,14:30,31.5,62,29.9,25.5
 2003/09/06,14:45,31.6,63,30,25.2
 2003/09/06,15:00,31.9,62,30.1,25.2
 2003/09/06,15:15,31.9,61,30.1,25.3
 2003/09/06,15:30,31.8,61,30,25.3
 2003/09/06,15:45,31.6,62,30,25.4
 2003/09/06,16:00,31.8,64,30.4,25.5
 2003/09/06,16:15,32.3,63,30.4,25.5
 2003/09/06,16:30,33.1,77,30.3,25.6
 2003/09/06,16:45,32.9,62,30.2,25.7
 2003/09/06,17:00,32.4,57,30.3,25.7
 2003/09/06,17:15,32.1,54,30.3,26.2
 2003/09/06,17:30,31.9,54,30.2,26.2
 2003/09/06,17:45,31.6,54,29.8,26.2
 2003/09/06,18:00,31.9,61,29.6,26
 2003/09/06,18:15,31.5,62,29.5,26
 2003/09/06,18:30,30.7,59,29.5,26.1
 2003/09/06,18:45,30.3,62,29.3,26.1
 2003/09/06,19:00,30.2,59,29,26.2
 2003/09/06,19:15,30.6,64,29,26.2
 2003/09/06,19:30,29.5,63,28.8,26.2
 2003/09/06,19:45,29.2,57,28.8,26.3
 2003/09/06,20:00,29.1,54,28.7,26.3
 2003/09/06,20:15,30.2,58,28.6,26.3
 2003/09/06,20:30,30.7,60,28.4,26.4
 2003/09/06,20:45,30.7,61,28.1,26.4
 2003/09/06,21:00,30.4,62,28,26.5
 2003/09/06,21:15,29.7,54,27.9,26.3
 2003/09/06,21:30,29.4,51,28,26.3
 2003/09/06,21:45,29.2,48,28,26.4
 2003/09/06,22:00,30,54,28.1,26.4
 2003/09/06,22:15,30.1,59,28,26.5
 2003/09/06,22:30,30.1,61,28.1,26.5
 2003/09/06,22:45,29.7,63,28,26.1
 2003/09/06,23:00,29.8,59,28,26.1
 2003/09/06,23:15,29.9,57,27.9,26.1
 2003/09/06,23:30,29.8,56,27.9,26.1
 2003/09/06,23:45,29.6,56,27.8,26.1
 2003/09/07, 0:00,29.5,57,27.8,25.9
 2003/09/07, 0:15,29.9,56,27.7,25.9
 2003/09/07, 0:30,30,58,27.7,26
 2003/09/07, 0:45,30,59,27.8,26
 2003/09/07, 1:00,29.8,60,27.7,26.1
 2003/09/07, 1:15,29.7,61,27.7,26.1
 2003/09/07, 1:30,29.6,62,27.7,26.1
 2003/09/07, 1:45,29.8,62,27.7,26.1
 2003/09/07, 2:00,29.8,62,27.6,26.1
 2003/09/07, 2:15,29.5,63,27.6,26.1
 2003/09/07, 2:30,29.2,64,27.5,26.1
 2003/09/07, 2:45,29,64,27.5,26.1
 2003/09/07, 3:00,29.3,63,27.5,26.1
 2003/09/07, 3:15,29.6,61,27.4,26.1
 2003/09/07, 3:30,29.6,61,27.3,26.1
 2003/09/07, 3:45,29.5,61,27.3,26.1
 2003/09/07, 4:00,29.3,62,27.2,26.2
 2003/09/07, 4:15,29.2,62,27.2,26.2
 2003/09/07, 4:30,29.4,61,27.2,26.1
 2003/09/07, 4:45,29.5,61,27.1,26.2
 2003/09/07, 5:00,29.3,61,27.1,26.3
 2003/09/07, 5:15,29.2,62,27.1,26.3
 2003/09/07, 5:30,29.1,62,27.1,26.3
 2003/09/07, 5:45,29.2,62,27.1,26.3
 2003/09/07, 6:00,29.2,62,27,26.3
 2003/09/07, 6:15,29.1,62,27.1,26.3
 2003/09/07, 6:30,29,62,27.1,26.3
 2003/09/07, 6:45,29.1,62,27.1,26.4
 2003/09/07, 7:00,29.2,61,27.1,25.7
 2003/09/07, 7:15,29,60,27.1,25.7
 2003/09/07, 7:30,28.7,61,26.9,26
 2003/09/07, 7:45,28.8,60,26.9,25.7
 2003/09/07, 8:00,29,60,26.9,25.6
 2003/09/07, 8:15,28.9,59,26.9,25.3
 2003/09/07, 8:30,28.6,60,26.9,25.3
 2003/09/07, 8:45,28.8,60,27.1,25.9
 2003/09/07, 9:00,29,60,27.1,25.9
 2003/09/07, 9:15,29.2,59,27.2,25.9
 2003/09/07, 9:30,29,59,26.9,25.9
 2003/09/07, 9:45,29.2,60,27.4,26
 2003/09/07,10:00,29.3,59,27.3,25.9
 2003/09/07,10:15,29.7,58,27.5,25.9
 2003/09/07,10:30,29.7,59,27.7,26
 2003/09/07,10:45,29.8,57,27.8,26
 2003/09/07,11:00,29.8,57,27.9,25.9
 2003/09/07,11:15,29.8,58,28,26
 2003/09/07,11:30,30,58,28.3,26
 2003/09/07,11:45,29.7,59,28.4,25.6
 2003/09/07,12:00,30,59,28.6,25.7
 2003/09/07,12:15,29.6,59,28.7,25.3
 2003/09/07,12:30,29.7,60,29.3,25.3
 2003/09/07,12:45,29.8,58,29.1,25.4
 2003/09/07,13:00,30.6,57,29.6,25.5
 2003/09/07,13:15,31.6,58,29.3,25.6
 2003/09/07,13:30,31.5,55,29.9,25.6
 2003/09/07,13:45,31.9,52,29.9,25.6
 2003/09/07,14:00,32.3,52,30.4,25.2
 2003/09/07,14:15,32.5,53,31,25.3
 2003/09/07,14:30,32.8,52,31.5,25.3
 2003/09/07,14:45,32.9,53,32.1,25.4
 2003/09/07,15:00,33,53,32,25.1
 2003/09/07,15:15,33.9,50,32.6,25.8
 2003/09/07,15:30,33.2,47,32.5,25.9
 2003/09/07,15:45,32.7,44,31.5,25.9
 2003/09/07,16:00,32.5,43,29.8,26
 2003/09/07,16:15,32.5,42,30.5,26
 2003/09/07,16:30,32.3,40,30.7,26
 2003/09/07,16:45,32.1,40,28.6,26.1
 2003/09/07,17:00,31.7,40,30.6,26.1
 2003/09/07,17:15,31.3,41,31.3,26.1
 2003/09/07,17:30,31.1,41,31.6,26.2
 2003/09/07,17:45,31.2,45,31.4,25.8
 2003/09/07,18:00,31,47,31.2,25.9
 2003/09/07,18:15,31.2,47,31.4,25.9
 2003/09/07,18:30,31.1,47,31.3,25.9
 2003/09/07,18:45,31.1,48,31.3,26
 2003/09/07,19:00,31.7,56,31.2,26
 2003/09/07,19:15,30.9,50,31,25.9
 2003/09/07,19:30,30.8,51,30.8,26
 2003/09/07,19:45,30.5,51,29.8,26
 2003/09/07,20:00,30.1,53,29.7,26
 2003/09/07,20:15,29.8,54,29.6,25.7
 2003/09/07,20:30,29.9,56,29.5,26.3